EW5655 Weather Reports


time (UTC)temp
C
wind
direction
speed
KPH
gust
KPH
rain 1hr
cm
rain 24hr
cm
rain mn
cm
humidity
%
barometer
mb
20260902024021 28 247 0.0 0.0 0.00 0.00 0.00 37 1017.8
20260902023519 28 247 0.0 0.0 0.00 0.00 0.00 36 1017.7
20260902023019 29 247 0.0 0.0 0.00 0.00 0.00 35 1017.7
20260902022520 29 247 0.0 0.0 0.00 0.00 0.00 34 1017.6
20260902022020 29 247 0.0 0.0 0.00 0.00 0.00 34 1017.6
20260902021519 29 247 0.0 0.0 0.00 0.00 0.00 34 1017.5
20260902021019 29 247 0.0 0.0 0.00 0.00 0.00 34 1017.4
20260902020520 30 247 0.0 0.0 0.00 0.00 0.00 33 1017.4
20260902020019 30 247 0.0 1.6 0.00 0.00 0.00 32 1017.3
20260902015519 30 247 0.0 1.6 0.00 0.00 0.00 32 1017.3
20260902015019 30 247 0.0 1.6 0.00 0.00 0.00 31 1017.3
20260902014523 30 247 0.0 0.0 0.00 0.00 0.00 31 1017.3
20260902014017 30 247 0.0 1.6 0.00 0.00 0.00 31 1017.2
20260902013518 30 247 0.0 8.0 0.00 0.00 0.00 30 1017.2
20260902013018 30 247 1.6 8.0 0.00 0.00 0.00 30 1017.1
20260902012518 30 251 1.6 6.4 0.00 0.00 0.00 29 1017.1
20260902012017 30 238 0.0 8.0 0.00 0.00 0.00 29 1017.1
20260902011518 30 198 3.2 8.0 0.00 0.00 0.00 29 1017.1
20260902011018 31 240 0.0 6.4 0.00 0.00 0.00 30 1017.1
20260902010517 31 264 1.6 4.8 0.00 0.00 0.00 29 1017.1
20260902010029 31 222 0.0 6.4 0.00 0.00 0.00 28 1017.1
20260902005619 31 219 0.0 9.7 0.00 0.00 0.00 28 1017.1
20260902005017 31 261 4.8 11.3 0.00 0.00 0.00 28 1017.1
20260902004517 31 264 6.4 12.9 0.00 0.00 0.00 28 1017.1
20260902004015 31 301 4.8 9.7 0.00 0.00 0.00 29 1017.1
20260902003519 31 165 0.0 12.9 0.00 0.00 0.00 29 1017.1
20260902003017 31 226 1.6 12.9 0.00 0.00 0.00 28 1017.1
20260902002515 31 246 4.8 12.9 0.00 0.00 0.00 28 1017.1
20260902002014 32 201 1.6 12.9 0.00 0.00 0.00 28 1017.2
20260902001517 32 237 1.6 14.5 0.00 0.00 0.00 28 1017.3
20260902001013 32 204 8.0 14.5 0.00 0.00 0.00 27 1017.4
20260902000513 32 211 6.4 14.5 0.00 0.00 0.00 27 1017.4
20260902000020 32 294 8.0 14.5 0.00 0.00 0.00 27 1017.3
20260901235513 32 210 1.6 12.9 0.00 0.00 0.00 28 1017.4
20260901235012 32 254 8.0 14.5 0.00 0.00 0.00 28 1017.4
20260901234512 32 190 8.0 17.7 0.00 0.00 0.00 28 1017.4
20260901234011 32 229 9.7 17.7 0.00 0.00 0.00 28 1017.4
20260901233512 32 257 6.4 17.7 0.00 0.00 0.00 28 1017.4
20260901233011 32 236 6.4 16.1 0.00 0.00 0.00 30 1017.4
20260901232511 32 261 6.4 16.1 0.00 0.00 0.00 29 1017.4
20260901232011 32 205 6.4 16.1 0.00 0.00 0.00 29 1017.4
20260901231513 32 243 9.7 14.5 0.00 0.00 0.00 29 1017.5
20260901231011 32 244 4.8 14.5 0.00 0.00 0.00 29 1017.4
20260901230511 32 265 9.7 14.5 0.00 0.00 0.00 29 1017.5
20260901230013 32 246 8.0 16.1 0.00 0.00 0.00 29 1017.4
20260901225511 33 258 8.0 16.1 0.00 0.00 0.00 29 1017.4
20260901225010 32 243 9.7 17.7 0.00 0.00 0.00 30 1017.5
20260901224509 32 215 8.0 17.7 0.00 0.00 0.00 30 1017.5
20260901224008 33 261 12.9 17.7 0.00 0.00 0.00 29 1017.5
20260901223509 32 238 9.7 17.7 0.00 0.00 0.00 30 1017.5
20260901223009 32 236 9.7 17.7 0.00 0.00 0.00 30 1017.6
20260901222508 32 267 9.7 17.7 0.00 0.00 0.00 29 1017.6
20260901222008 33 296 6.4 11.3 0.00 0.00 0.00 28 1017.6
20260901221507 32 260 4.8 14.5 0.00 0.00 0.00 30 1017.6
20260901221007 32 245 8.0 17.7 0.00 0.00 0.00 29 1017.6
20260901220506 32 227 11.3 17.7 0.00 0.00 0.00 29 1017.7
20260901220009 32 269 3.2 17.7 0.00 0.00 0.00 29 1017.7
20260901215506 32 244 9.7 17.7 0.00 0.00 0.00 29 1017.7
20260901215006 32 276 8.0 16.1 0.00 0.00 0.00 29 1017.8
20260901214506 32 236 4.8 14.5 0.00 0.00 0.00 29 1017.9
20260901214004 32 317 8.0 16.1 0.00 0.00 0.00 29 1018.0
20260901213504 32 276 8.0 16.1 0.00 0.00 0.00 29 1018.0
20260901213004 32 211 8.0 12.9 0.00 0.00 0.00 29 1018.1
20260901212503 32 157 3.2 16.1 0.00 0.00 0.00 28 1018.1
20260901212004 33 198 6.4 16.1 0.00 0.00 0.00 28 1018.2
20260901211502 32 164 9.7 17.7 0.00 0.00 0.00 28 1018.2
20260901211002 32 246 4.8 17.7 0.00 0.00 0.00 29 1018.3
20260901210502 32 220 9.7 16.1 0.00 0.00 0.00 29 1018.4
20260901210100 32 206 4.8 14.5 0.00 0.00 0.00 29 1018.4
20260901205600 32 240 9.7 17.7 0.00 0.00 0.00 29 1018.4
20260901205103 32 207 9.7 17.7 0.00 0.00 0.00 29 1018.5
20260901204558 33 214 11.3 17.7 0.00 0.00 0.00 28 1018.5
20260901204101 32 165 6.4 16.1 0.00 0.00 0.00 28 1018.6
20260901203559 33 309 4.8 16.1 0.00 0.00 0.00 28 1018.7
20260901203057 33 214 6.4 19.3 0.00 0.00 0.00 28 1018.8
20260901202556 33 138 9.7 19.3 0.00 0.00 0.00 28 1018.8
20260901202055 33 171 4.8 16.1 0.00 0.00 0.00 27 1018.9
20260901201558 33 154 8.0 16.1 0.00 0.00 0.00 28 1019.0
20260901201053 32 162 3.2 12.9 0.00 0.00 0.00 28 1019.0
20260901200551 33 160 0.0 14.5 0.00 0.00 0.00 28 1019.1
20260901200052 32 140 6.4 14.5 0.00 0.00 0.00 28 1019.1
20260901195550 32 123 6.4 14.5 0.00 0.00 0.00 30 1019.2
20260901195050 32 203 4.8 14.5 0.00 0.00 0.00 28 1019.2
20260901194600 32 292 8.0 14.5 0.00 0.00 0.00 29 1019.2
20260901194051 32 276 8.0 14.5 0.00 0.00 0.00 29 1019.3
20260901193548 32 233 3.2 14.5 0.00 0.00 0.00 29 1019.4
20260901193101 32 234 6.4 12.9 0.00 0.00 0.00 29 1019.5
20260901192547 32 227 6.4 14.5 0.00 0.00 0.00 29 1019.5
20260901192046 32 166 9.7 14.5 0.00 0.00 0.00 29 1019.6
20260901191544 32 217 6.4 17.7 0.00 0.00 0.00 30 1019.6
20260901191046 32 184 9.7 17.7 0.00 0.00 0.00 30 1019.7
20260901190543 32 235 8.0 14.5 0.00 0.00 0.00 31 1019.7
20260901190041 31 153 3.2 12.9 0.00 0.00 0.00 30 1019.7
20260901185541 31 334 6.4 14.5 0.00 0.00 0.00 30 1019.8
20260901185039 32 325 8.0 14.5 0.00 0.00 0.00 30 1019.8
20260901184543 32 239 4.8 11.3 0.00 0.00 0.00 31 1019.9
20260901184039 31 342 4.8 11.3 0.00 0.00 0.00 30 1019.9
20260901183539 31 249 1.6 9.7 0.00 0.00 0.00 31 1019.9
20260901183037 31 276 4.8 14.5 0.00 0.00 0.00 32 1020.0
20260901182536 31 192 6.4 14.5 0.00 0.00 0.00 32 1020.0
20260901182036 31 257 1.6 11.3 0.00 0.00 0.00 30 1020.0
20260901181539 31 257 6.4 11.3 0.00 0.00 0.00 31 1020.1
20260901181034 31 194 6.4 12.9 0.00 0.00 0.00 31 1020.1
20260901180534 31 215 8.0 12.9 0.00 0.00 0.00 32 1020.2
20260901180033 30 248 1.6 8.0 0.00 0.00 0.00 33 1020.2
20260901175532 30 291 3.2 16.1 0.00 0.00 0.00 32 1020.3
20260901175031 31 305 4.8 11.3 0.00 0.00 0.00 32 1020.3
20260901174530 30 191 4.8 12.9 0.00 0.00 0.00 31 1020.4
20260901174029 30 180 6.4 12.9 0.00 0.00 0.00 32 1020.4
20260901173529 30 202 0.0 6.4 0.00 0.00 0.00 34 1020.4
20260901173030 30 281 3.2 6.4 0.00 0.00 0.00 35 1020.4
20260901172525 29 230 1.6 8.0 0.00 0.00 0.00 35 1020.5
20260901172026 30 294 1.6 9.7 0.00 0.00 0.00 35 1020.6
20260901171523 30 163 4.8 9.7 0.00 0.00 0.00 34 1020.5
20260901171022 30 237 3.2 9.7 0.00 0.00 0.00 35 1020.5
20260901170521 30 173 3.2 9.7 0.00 0.00 0.00 36 1020.5
20260901170053 29 59 0.0 6.4 0.00 0.00 0.00 36 1020.5
20260901165519 28 196 1.6 8.0 0.00 0.00 0.00 37 1020.5
20260901165018 28 197 3.2 8.0 0.00 0.00 0.00 38 1020.5
20260901164518 28 225 1.6 8.0 0.00 0.00 0.00 39 1020.5
20260901164017 28 89 1.6 8.0 0.00 0.00 0.00 39 1020.4
20260901163515 28 121 1.6 8.0 0.00 0.00 0.00 40 1020.4
20260901163026 28 87 1.6 8.0 0.00 0.00 0.00 40 1020.4
20260901162515 27 259 0.0 8.0 0.00 0.00 0.00 41 1020.4
20260901162117 27 184 1.6 9.7 0.00 0.00 0.00 42 1020.4
20260901161011 26 175 0.0 6.4 0.00 0.00 0.00 43 1020.4
20260901155053 26 62 0.0 1.6 0.00 0.00 0.00 45 1020.3
20260901154559 26 62 0.0 0.0 0.00 0.00 0.00 46 1020.3
20260901154050 26 62 0.0 6.4 0.00 0.00 0.00 48 1020.3
20260901153048 25 62 0.0 3.2 0.00 0.00 0.00 48 1020.3
20260901152547 25 62 0.0 3.2 0.00 0.00 0.00 51 1020.3
20260901152046 25 62 0.0 6.4 0.00 0.00 0.00 51 1020.4
20260901151553 25 62 0.0 6.4 0.00 0.00 0.00 51 1020.4
20260901151521 25 62 0.0 6.4 0.00 0.00 0.00 52 1020.4
20260901150058 23 62 0.0 6.4 0.00 0.00 0.00 54 1020.4
20260901145541 23 62 0.0 3.2 0.00 0.00 0.00 54 1020.3
20260901145041 23 62 0.0 3.2 0.00 0.00 0.00 55 1020.4
20260901144544 23 62 0.0 3.2 0.00 0.00 0.00 56 1020.4
20260901144040 23 62 0.0 3.2 0.00 0.00 0.00 55 1020.4
20260901143538 23 62 0.0 3.2 0.00 0.00 0.00 55 1020.4
20260901143038 23 62 0.0 3.2 0.00 0.00 0.00 54 1020.4
20260901142538 23 62 0.0 3.2 0.00 0.00 0.00 53 1020.3
20260901142036 23 62 0.0 0.0 0.00 0.00 0.00 54 1020.3
20260901141537 23 62 0.0 3.2 0.00 0.00 0.00 55 1020.3
20260901141037 22 62 0.0 3.2 0.00 0.00 0.00 54 1020.2
20260901140539 22 62 0.0 1.6 0.00 0.00 0.00 54 1020.3
20260901140034 22 62 0.0 0.0 0.00 0.00 0.00 55 1020.2
20260901135532 22 62 0.0 0.0 0.00 0.00 0.00 56 1020.1
20260901135032 21 62 0.0 1.6 0.00 0.00 0.00 57 1020.1
20260901134534 22 62 0.0 1.6 0.00 0.00 0.00 57 1020.0
20260901134029 21 62 0.0 1.6 0.00 0.00 0.00 56 1020.0
20260901133533 21 62 0.0 1.6 0.00 0.00 0.00 57 1019.9
20260901133030 21 62 0.0 1.6 0.00 0.00 0.00 56 1020.0
20260901132528 21 62 0.0 3.2 0.00 0.00 0.00 56 1019.9
20260901132028 21 62 0.0 3.2 0.00 0.00 0.00 57 1019.9
20260901131539 21 62 0.0 0.0 0.00 0.00 0.00 58 1019.8
20260901131028 21 62 0.0 0.0 0.00 0.00 0.00 57 1019.8
20260901130528 21 62 0.0 0.0 0.00 0.00 0.00 56 1019.8
20260901130025 21 62 0.0 0.0 0.00 0.00 0.00 56 1019.7
20260901125524 21 62 0.0 6.4 0.00 0.00 0.00 55 1019.6
20260901125025 21 62 0.0 6.4 0.00 0.00 0.00 55 1019.6
20260901124523 21 286 0.0 1.6 0.00 0.00 0.00 55 1019.5
20260901124023 21 286 0.0 0.0 0.00 0.00 0.00 56 1019.5
20260901123522 21 286 0.0 0.0 0.00 0.00 0.00 56 1019.4
20260901123031 22 286 0.0 0.0 0.00 0.00 0.00 56 1019.5
20260901122522 21 286 0.0 0.0 0.00 0.00 0.00 57 1019.4
20260901122021 21 286 0.0 0.0 0.00 0.00 0.00 56 1019.4
20260901121523 22 286 0.0 0.0 0.00 0.00 0.00 56 1019.3
20260901121020 21 286 0.0 0.0 0.00 0.00 0.00 56 1019.3
20260901120520 21 286 0.0 0.0 0.00 0.00 0.00 56 1019.3
20260901120019 22 286 0.0 0.0 0.00 0.00 0.00 56 1019.4
20260901115518 22 286 0.0 0.0 0.00 0.00 0.00 54 1019.3
20260901115018 22 286 0.0 3.2 0.00 0.00 0.00 54 1019.3
20260901114534 22 286 0.0 3.2 0.00 0.00 0.00 54 1019.3
20260901114016 22 286 0.0 3.2 0.00 0.00 0.00 54 1019.2
20260901113514 22 286 0.0 8.0 0.00 0.00 0.00 54 1019.2
20260901113020 22 290 0.0 8.0 0.00 0.00 0.00 53 1019.2
20260901112513 22 286 1.6 11.3 0.00 0.00 0.00 53 1019.2
20260901112013 22 236 3.2 11.3 0.00 0.00 0.00 53 1019.2
20260901111513 22 281 4.8 8.0 0.00 0.00 0.00 52 1019.2
20260901111011 22 27 0.0 1.6 0.00 0.00 0.00 51 1019.0
20260901110511 23 27 0.0 3.2 0.00 0.00 0.00 50 1019.0
20260901110010 23 27 0.0 8.0 0.00 0.00 0.00 50 1019.0
20260901105510 23 47 0.0 8.0 0.00 0.00 0.00 50 1018.8
20260901105009 23 34 1.6 8.0 0.00 0.00 0.00 50 1018.8
20260901104509 23 34 1.6 8.0 0.00 0.00 0.00 50 1018.8
20260901104009 23 28 0.0 3.2 0.00 0.00 0.00 50 1018.8
20260901103509 23 47 0.0 6.4 0.00 0.00 0.00 50 1018.9
20260901103012 23 59 1.6 6.4 0.00 0.00 0.00 50 1019.0
20260901102508 23 56 0.0 8.0 0.00 0.00 0.00 50 1019.0
20260901102006 23 28 0.0 8.0 0.00 0.00 0.00 49 1019.0
20260901101505 23 49 0.0 6.4 0.00 0.00 0.00 50 1019.1
20260901101006 23 47 0.0 1.6 0.00 0.00 0.00 49 1019.1
20260901100507 23 61 0.0 6.4 0.00 0.00 0.00 50 1019.1
20260901100004 23 53 0.0 6.4 0.00 0.00 0.00 50 1019.1
20260901095504 23 47 0.0 6.4 0.00 0.00 0.00 49 1019.2
20260901095005 23 57 1.6 6.4 0.00 0.00 0.00 49 1019.2
20260901094504 23 43 0.0 6.4 0.00 0.00 0.00 49 1019.2
20260901094003 23 46 0.0 6.4 0.00 0.00 0.00 49 1019.2
20260901093503 23 10 0.0 6.4 0.00 0.00 0.00 50 1019.1
20260901093003 23 26 1.6 6.4 0.00 0.00 0.00 50 1019.1
20260901092502 23 26 1.6 8.0 0.00 0.00 0.00 50 1019.2
20260901092002 23 27 1.6 8.0 0.00 0.00 0.00 50 1019.3
20260901091504 23 9 0.0 6.4 0.00 0.00 0.00 50 1019.4
20260901091001 23 3 0.0 9.7 0.00 0.00 0.00 50 1019.5
20260901090501 23 59 1.6 9.7 0.00 0.00 0.00 50 1019.4
20260901090005 23 34 1.6 8.0 0.00 0.00 0.00 50 1019.4
20260901085602 23 36 1.6 11.3 0.00 0.00 0.00 50 1019.4
20260901085059 23 41 4.8 11.3 0.00 0.00 0.00 50 1019.4
20260901084603 23 40 3.2 9.7 0.00 0.00 0.00 50 1019.4
20260901084100 23 62 0.0 3.2 0.00 0.00 0.00 51 1019.4
20260901083559 23 28 0.0 8.0 0.00 0.00 0.00 51 1019.3
20260901083059 23 19 3.2 8.0 0.00 0.00 0.00 51 1019.5
20260901082558 24 41 1.6 4.8 0.00 0.00 0.00 51 1019.5
20260901082057 24 9 0.0 6.4 0.00 0.00 0.00 50 1019.5
20260901081557 24 17 0.0 9.7 0.00 0.00 0.00 51 1019.6
20260901081058 24 42 1.6 9.7 0.00 0.00 0.00 51 1019.5
20260901080557 24 24 1.6 9.7 0.00 0.00 0.00 51 1019.5
20260901080058 24 52 1.6 9.7 0.00 0.00 0.00 50 1019.4
20260901075557 24 7 3.2 9.7 0.00 0.00 0.00 50 1019.3
20260901075057 24 32 0.0 12.9 0.00 0.00 0.00 51 1019.4
20260901074600 24 47 6.4 12.9 0.00 0.00 0.00 52 1019.4
20260901074055 24 9 4.8 11.3 0.00 0.00 0.00 52 1019.3
20260901073554 24 337 4.8 11.3 0.00 0.00 0.00 51 1019.3
20260901073054 24 58 0.0 9.7 0.00 0.00 0.00 50 1019.2
20260901072553 25 9 0.0 16.1 0.00 0.00 0.00 48 1019.2
20260901072053 25 17 8.0 16.1 0.00 0.00 0.00 44 1019.1
20260901071552 25 13 8.0 16.1 0.00 0.00 0.00 43 1019.3
20260901071050 25 14 4.8 12.9 0.00 0.00 0.00 43 1019.6
20260901070550 25 2 1.6 12.9 0.00 0.00 0.00 44 1019.6
20260901070050 25 47 3.2 12.9 0.00 0.00 0.00 44 1019.4
20260901065549 25 15 6.4 12.9 0.00 0.00 0.00 44 1019.5
20260901065049 25 4 4.8 12.9 0.00 0.00 0.00 44 1019.7
20260901064549 25 340 4.8 14.5 0.00 0.00 0.00 44 1019.7
20260901064047 25 7 4.8 17.7 0.00 0.00 0.00 45 1019.6
20260901063546 25 317 4.8 17.7 0.00 0.00 0.00 46 1019.7
20260901063105 25 310 8.0 16.1 0.00 0.00 0.00 46 1019.8
20260901062544 25 302 8.0 22.5 0.00 0.00 0.00 46 1019.9
20260901062044 25 307 12.9 22.5 0.00 0.00 0.00 46 1019.9
20260901061547 25 334 8.0 16.1 0.00 0.00 0.00 46 1019.8
20260901061041 25 330 4.8 16.1 0.00 0.00 0.00 46 1019.7
20260901060541 25 331 8.0 17.7 0.00 0.00 0.00 46 1019.7
20260901060040 25 346 9.7 24.1 0.00 0.00 0.00 45 1019.6
20260901055539 25 26 12.9 24.1 0.00 0.00 0.00 45 1019.6
20260901055039 25 286 9.7 22.5 0.00 0.00 0.00 46 1019.4
20260901054539 25 333 9.7 17.7 0.00 0.00 0.00 46 1019.5
20260901054039 25 321 9.7 17.7 0.00 0.00 0.00 48 1019.5
20260901053538 25 315 8.0 14.5 0.00 0.00 0.00 48 1019.6
20260901053050 25 340 8.0 20.9 0.00 0.00 0.00 48 1019.6
20260901052540 25 299 9.7 20.9 0.00 0.00 0.00 48 1019.8
20260901052037 25 330 11.3 19.3 0.00 0.00 0.00 49 1019.8
20260901051538 25 294 6.4 20.9 0.00 0.00 0.00 50 1019.9
20260901051039 25 344 9.7 25.7 0.00 0.00 0.00 50 1020.0
20260901050538 25 271 11.3 25.7 0.00 0.00 0.00 51 1020.1
20260901050038 25 342 8.0 22.5 0.00 0.00 0.00 51 1020.1
20260901045538 25 312 9.7 22.5 0.00 0.00 0.00 51 1020.1
20260901045037 25 311 9.7 22.5 0.00 0.00 0.00 51 1020.2
20260901044540 25 344 8.0 25.7 0.00 0.00 0.00 52 1020.2
20260901044036 24 323 11.3 29.0 0.00 0.00 0.00 52 1020.1
20260901043535 24 290 9.7 29.0 0.00 0.00 0.00 53 1020.1
20260901043034 25 239 14.5 25.7 0.00 0.00 0.00 52 1020.0
20260901042539 25 232 11.3 25.7 0.00 0.00 0.00 51 1020.0
20260901042033 25 242 8.0 30.6 0.00 0.00 0.00 50 1019.8
20260901041536 25 227 12.9 30.6 0.00 0.00 0.00 50 1019.8
20260901041032 25 286 9.7 22.5 0.00 0.00 0.00 49 1019.7
20260901040532 25 286 11.3 22.5 0.00 0.00 0.00 49 1019.6
20260901040033 25 305 9.7 25.7 0.00 0.00 0.00 48 1019.6
20260901035531 25 232 12.9 25.7 0.00 0.00 0.00 48 1019.6
20260901035033 26 218 9.7 22.5 0.00 0.00 0.00 47 1019.5
20260901034537 26 253 8.0 22.5 0.00 0.00 0.00 47 1019.5
20260901034029 26 227 9.7 22.5 0.00 0.00 0.00 47 1019.3
20260901033527 26 267 8.0 19.3 0.00 0.00 0.00 46 1019.2
20260901033029 26 226 6.4 24.1 0.00 0.00 0.00 46 1019.1
20260901032525 26 251 16.1 24.1 0.00 0.00 0.00 45 1018.7
20260901032024 26 232 12.9 32.2 0.00 0.00 0.00 45 1018.6
20260901031529 27 213 14.5 32.2 0.00 0.00 0.00 44 1018.4
20260901031021 27 217 14.5 30.6 0.00 0.00 0.00 42 1018.3
20260901030521 27 227 14.5 29.0 0.00 0.00 0.00 41 1018.1
20260901030020 27 159 11.3 22.5 0.00 0.00 0.00 40 1018.0
20260901025521 27 195 11.3 19.3 0.00 0.00 0.00 37 1017.9
20260901025021 27 211 8.0 22.5 0.00 0.00 0.00 38 1017.6
20260901024522 27 138 9.7 22.5 0.00 0.00 0.00 38 1017.6